| time (UTC) | temp C | wind direction | speed KPH | gust KPH | rain 1hr cm | rain 24hr cm | rain mn cm | humidity % | barometer mb |
| 20260503212403 | 31 | 281 | 3.2 | 4.8 | 0.00 | 0.00 | 0.00 | 33 | 1008.7 |
| 20260503211903 | 31 | 317 | 1.6 | 4.8 | 0.00 | 0.00 | 0.00 | 34 | 1008.8 |
| 20260503211403 | 31 | 231 | 1.6 | 4.8 | 0.00 | 0.00 | 0.00 | 35 | 1008.9 |
| 20260503210903 | 31 | 249 | 1.6 | 9.7 | 0.00 | 0.00 | 0.00 | 33 | 1009.0 |
| 20260503210403 | 31 | 41 | 3.2 | 9.7 | 0.00 | 0.00 | 0.00 | 34 | 1009.1 |
| 20260503205904 | 30 | 29 | 3.2 | 9.7 | 0.00 | 0.00 | 0.00 | 37 | 1009.2 |
| 20260503205404 | 30 | 258 | 3.2 | 9.7 | 0.00 | 0.00 | 0.00 | 37 | 1009.2 |
| 20260503204903 | 30 | 246 | 1.6 | 9.7 | 0.00 | 0.00 | 0.00 | 37 | 1009.3 |
| 20260503204405 | 30 | 246 | 0.0 | 8.0 | 0.00 | 0.00 | 0.00 | 38 | 1009.4 |
| 20260503203903 | 30 | 230 | 1.6 | 9.7 | 0.00 | 0.00 | 0.00 | 37 | 1009.4 |
| 20260503203403 | 30 | 105 | 3.2 | 9.7 | 0.00 | 0.00 | 0.00 | 35 | 1009.4 |
| 20260503202904 | 29 | 13 | 1.6 | 8.0 | 0.00 | 0.00 | 0.00 | 40 | 1009.6 |
| 20260503202403 | 29 | 225 | 1.6 | 11.3 | 0.00 | 0.00 | 0.00 | 45 | 1009.6 |
| 20260503201904 | 28 | 215 | 1.6 | 11.3 | 0.00 | 0.00 | 0.00 | 44 | 1009.7 |
| 20260503200903 | 28 | 246 | 1.6 | 4.8 | 0.00 | 0.00 | 0.00 | 44 | 1009.8 |
| 20260503200404 | 28 | 208 | 1.6 | 8.0 | 0.00 | 0.00 | 0.00 | 45 | 1009.9 |
| 20260503195903 | 28 | 218 | 3.2 | 8.0 | 0.00 | 0.00 | 0.00 | 47 | 1009.9 |
| 20260503195402 | 28 | 218 | 3.2 | 8.0 | 0.00 | 0.00 | 0.00 | 46 | 1010.1 |
| 20260503194903 | 28 | 221 | 1.6 | 8.0 | 0.00 | 0.00 | 0.00 | 47 | 1010.1 |
| 20260503194403 | 28 | 206 | 1.6 | 8.0 | 0.00 | 0.00 | 0.00 | 45 | 1010.1 |
| 20260503193903 | 28 | 334 | 1.6 | 4.8 | 0.00 | 0.00 | 0.00 | 51 | 1010.2 |
| 20260503193404 | 27 | 328 | 0.0 | 3.2 | 0.00 | 0.00 | 0.00 | 50 | 1010.2 |
| 20260503192903 | 27 | 263 | 1.6 | 3.2 | 0.00 | 0.00 | 0.00 | 51 | 1010.2 |
| 20260503192403 | 27 | 312 | 0.0 | 4.8 | 0.00 | 0.00 | 0.00 | 52 | 1010.3 |
| 20260503191904 | 27 | 332 | 0.0 | 4.8 | 0.00 | 0.00 | 0.00 | 53 | 1010.3 |
| 20260503190904 | 26 | 286 | 1.6 | 4.8 | 0.00 | 0.00 | 0.00 | 51 | 1010.5 |
| 20260503190403 | 26 | 280 | 1.6 | 4.8 | 0.00 | 0.00 | 0.00 | 52 | 1010.5 |
| 20260503185903 | 26 | 288 | 0.0 | 4.8 | 0.00 | 0.00 | 0.00 | 53 | 1010.6 |
| 20260503184403 | 25 | 343 | 1.6 | 4.8 | 0.00 | 0.00 | 0.00 | 57 | 1010.8 |
| 20260503183403 | 25 | 291 | 0.0 | 8.0 | 0.00 | 0.00 | 0.00 | 59 | 1011.0 |
| 20260503182403 | 24 | 264 | 1.6 | 4.8 | 0.00 | 0.00 | 0.00 | 59 | 1011.1 |
| 20260503181403 | 24 | 296 | 0.0 | 4.8 | 0.00 | 0.00 | 0.00 | 61 | 1011.2 |
| 20260503180904 | 23 | 279 | 0.0 | 4.8 | 0.00 | 0.00 | 0.00 | 61 | 1011.1 |
| 20260503175903 | 23 | 269 | 1.6 | 4.8 | 0.00 | 0.00 | 0.00 | 61 | 1011.2 |
| 20260503175403 | 23 | 183 | 1.6 | 3.2 | 0.00 | 0.00 | 0.00 | 61 | 1011.3 |
| 20260503174903 | 22 | 246 | 0.0 | 3.2 | 0.00 | 0.00 | 0.00 | 64 | 1011.4 |
| 20260503174403 | 22 | 233 | 0.0 | 4.8 | 0.00 | 0.00 | 0.00 | 64 | 1011.4 |
| 20260503173904 | 22 | 255 | 1.6 | 4.8 | 0.00 | 0.00 | 0.00 | 63 | 1011.4 |
| 20260503173403 | 22 | 261 | 1.6 | 4.8 | 0.00 | 0.00 | 0.00 | 65 | 1011.5 |
| 20260503172904 | 22 | 225 | 1.6 | 4.8 | 0.00 | 0.00 | 0.00 | 63 | 1011.5 |
| 20260503171903 | 21 | 248 | 1.6 | 4.8 | 0.00 | 0.00 | 0.00 | 65 | 1011.5 |
| 20260503171403 | 21 | 212 | 1.6 | 4.8 | 0.00 | 0.00 | 0.00 | 70 | 1011.6 |
| 20260503170903 | 21 | 227 | 0.0 | 4.8 | 0.00 | 0.00 | 0.00 | 68 | 1011.7 |
| 20260503170403 | 21 | 242 | 0.0 | 3.2 | 0.00 | 0.00 | 0.00 | 71 | 1011.7 |
| 20260503150903 | 16 | 105 | 0.0 | 0.0 | 0.00 | 0.00 | 0.00 | 85 | 1012.1 |
| 20260503150403 | 16 | 61 | 0.0 | 0.0 | 0.00 | 0.00 | 0.00 | 86 | 1012.2 |
| 20260503131403 | 8 | 122 | 0.0 | 0.0 | 0.00 | 0.03 | 0.00 | 95 | 1011.8 |
| 20260503130403 | 8 | 122 | 0.0 | 0.0 | 0.00 | 0.03 | 0.00 | 94 | 1011.7 |
| 20260503110404 | 10 | 81 | 0.0 | 0.0 | 0.00 | 0.03 | 0.00 | 94 | 1012.1 |
| 20260503090403 | 11 | 78 | 0.0 | 0.0 | 0.00 | 0.05 | 0.00 | 92 | 1012.2 |
| 20260503081403 | 12 | 67 | 0.0 | 0.0 | 0.00 | 0.08 | 0.00 | 92 | 1012.3 |
| 20260503080903 | 12 | 67 | 0.0 | 0.0 | 0.00 | 0.08 | 0.00 | 91 | 1012.3 |
| 20260503080404 | 12 | 74 | 0.0 | 0.0 | 0.00 | 0.08 | 0.00 | 91 | 1012.3 |
| 20260503072903 | 12 | 78 | 0.0 | 0.0 | 0.00 | 0.08 | 0.00 | 90 | 1012.4 |
| 20260503071403 | 13 | 80 | 0.0 | 0.0 | 0.00 | 0.08 | 0.00 | 89 | 1012.4 |
| 20260503070904 | 13 | 90 | 0.0 | 0.0 | 0.00 | 0.08 | 0.00 | 89 | 1012.5 |
| 20260503070404 | 13 | 144 | 0.0 | 0.0 | 0.00 | 0.08 | 0.00 | 89 | 1012.4 |
| 20260503054904 | 15 | 43 | 0.0 | 0.0 | 0.00 | 0.08 | 0.08 | 86 | 1012.1 |
| 20260503053903 | 15 | 43 | 0.0 | 0.0 | 0.00 | 0.08 | 0.08 | 85 | 1012.4 |
| 20260503052903 | 15 | 43 | 0.0 | 0.0 | 0.00 | 0.08 | 0.08 | 85 | 1012.5 |
| 20260503052403 | 15 | 43 | 0.0 | 0.0 | 0.00 | 0.08 | 0.08 | 84 | 1012.5 |
| 20260503051904 | 15 | 32 | 0.0 | 0.0 | 0.00 | 0.08 | 0.08 | 84 | 1012.5 |
| 20260503051403 | 15 | 94 | 0.0 | 0.0 | 0.00 | 0.08 | 0.08 | 84 | 1012.6 |
| 20260503050903 | 15 | 143 | 0.0 | 0.0 | 0.00 | 0.08 | 0.08 | 84 | 1012.6 |
| 20260503050403 | 15 | 85 | 0.0 | 0.0 | 0.00 | 0.08 | 0.08 | 84 | 1012.6 |
| 20260503045404 | 16 | 38 | 0.0 | 0.0 | 0.00 | 0.08 | 0.08 | 83 | 1012.7 |
| 20260503044904 | 16 | 38 | 0.0 | 0.0 | 0.00 | 0.08 | 0.08 | 81 | 1012.6 |
| 20260503043903 | 16 | 80 | 0.0 | 0.0 | 0.00 | 0.08 | 0.08 | 80 | 1012.5 |
| 20260503043403 | 16 | 80 | 0.0 | 0.0 | 0.00 | 0.08 | 0.08 | 79 | 1012.6 |
| 20260503042903 | 16 | 80 | 0.0 | 0.0 | 0.00 | 0.08 | 0.08 | 79 | 1012.6 |
| 20260503042403 | 17 | 80 | 0.0 | 0.0 | 0.00 | 0.08 | 0.08 | 78 | 1012.6 |
| 20260503041403 | 17 | 80 | 0.0 | 0.0 | 0.00 | 0.08 | 0.08 | 76 | 1012.5 |
| 20260503040903 | 17 | 80 | 0.0 | 0.0 | 0.00 | 0.08 | 0.08 | 76 | 1012.6 |
| 20260503035903 | 17 | 80 | 0.0 | 3.2 | 0.00 | 0.08 | 0.08 | 75 | 1012.6 |
| 20260503035403 | 17 | 126 | 0.0 | 0.0 | 0.00 | 0.08 | 0.08 | 73 | 1012.5 |
| 20260503034903 | 18 | 118 | 0.0 | 0.0 | 0.00 | 0.08 | 0.08 | 72 | 1012.4 |
| 20260503033404 | 18 | 182 | 0.0 | 0.0 | 0.00 | 0.08 | 0.08 | 71 | 1012.4 |
| 20260503032904 | 18 | 231 | 0.0 | 0.0 | 0.00 | 0.08 | 0.08 | 70 | 1012.3 |
| 20260503032403 | 18 | 211 | 0.0 | 0.0 | 0.00 | 0.08 | 0.08 | 69 | 1012.4 |
| 20260503031903 | 19 | 201 | 0.0 | 8.0 | 0.00 | 0.08 | 0.08 | 68 | 1012.3 |
| 20260503031403 | 19 | 226 | 0.0 | 9.7 | 0.00 | 0.08 | 0.08 | 67 | 1012.3 |
| 20260503030903 | 19 | 199 | 1.6 | 11.3 | 0.00 | 0.08 | 0.08 | 67 | 1012.1 |
| 20260503030404 | 20 | 252 | 0.0 | 11.3 | 0.00 | 0.08 | 0.08 | 67 | 1012.2 |
| 20260503025903 | 20 | 295 | 0.0 | 3.2 | 0.00 | 0.08 | 0.08 | 66 | 1012.0 |
| 20260503025403 | 20 | 235 | 0.0 | 8.0 | 0.00 | 0.08 | 0.08 | 68 | 1011.8 |
| 20260503024903 | 20 | 136 | 1.6 | 8.0 | 0.00 | 0.08 | 0.08 | 67 | 1011.8 |
| 20260503024403 | 20 | 162 | 0.0 | 8.0 | 0.00 | 0.08 | 0.08 | 66 | 1011.7 |
| 20260503023904 | 20 | 47 | 0.0 | 3.2 | 0.00 | 0.08 | 0.08 | 67 | 1011.6 |
| 20260503023403 | 20 | 128 | 0.0 | 3.2 | 0.00 | 0.08 | 0.08 | 66 | 1011.7 |
| 20260503022403 | 21 | 145 | 0.0 | 3.2 | 0.00 | 0.08 | 0.08 | 65 | 1011.3 |
| 20260503021903 | 21 | 133 | 0.0 | 9.7 | 0.00 | 0.08 | 0.08 | 65 | 1011.2 |
| 20260503021403 | 21 | 79 | 1.6 | 9.7 | 0.00 | 0.08 | 0.08 | 64 | 1011.1 |
| 20260503020903 | 21 | 115 | 0.0 | 3.2 | 0.00 | 0.08 | 0.08 | 63 | 1011.1 |
| 20260503020404 | 21 | 121 | 0.0 | 8.0 | 0.00 | 0.08 | 0.08 | 62 | 1011.0 |
| 20260503015904 | 22 | 70 | 1.6 | 8.0 | 0.00 | 0.08 | 0.08 | 61 | 1010.9 |
| 20260503015403 | 22 | 113 | 0.0 | 4.8 | 0.00 | 0.08 | 0.08 | 60 | 1010.8 |
| 20260503014904 | 23 | 87 | 3.2 | 4.8 | 0.00 | 0.08 | 0.08 | 59 | 1010.8 |
| 20260503014403 | 23 | 202 | 0.0 | 0.0 | 0.00 | 0.08 | 0.08 | 60 | 1010.8 |
| 20260503013903 | 23 | 205 | 0.0 | 0.0 | 0.00 | 0.08 | 0.08 | 61 | 1010.7 |
| 20260503013403 | 23 | 264 | 0.0 | 0.0 | 0.00 | 0.08 | 0.08 | 59 | 1010.7 |
| 20260503012903 | 23 | 152 | 0.0 | 0.0 | 0.00 | 0.08 | 0.08 | 60 | 1010.8 |
| 20260503012404 | 23 | 24 | 0.0 | 0.0 | 0.00 | 0.08 | 0.08 | 59 | 1010.7 |
| 20260503011903 | 23 | 19 | 0.0 | 0.0 | 0.00 | 0.08 | 0.08 | 55 | 1010.8 |
| 20260503011404 | 23 | 254 | 0.0 | 0.0 | 0.00 | 0.08 | 0.08 | 58 | 1010.8 |
| 20260503010903 | 24 | 241 | 0.0 | 0.0 | 0.00 | 0.08 | 0.08 | 56 | 1010.8 |
| 20260503010403 | 24 | 268 | 0.0 | 0.0 | 0.00 | 0.08 | 0.08 | 56 | 1010.8 |
| 20260503005403 | 23 | 234 | 0.0 | 0.0 | 0.00 | 0.08 | 0.08 | 59 | 1010.8 |
| 20260503004904 | 23 | 221 | 0.0 | 0.0 | 0.00 | 0.08 | 0.08 | 60 | 1010.9 |
| 20260503004404 | 23 | 259 | 0.0 | 0.0 | 0.00 | 0.08 | 0.08 | 60 | 1010.9 |
| 20260503003903 | 23 | 235 | 0.0 | 3.2 | 0.00 | 0.08 | 0.08 | 58 | 1010.9 |
| 20260503002903 | 23 | 219 | 0.0 | 3.2 | 0.00 | 0.08 | 0.08 | 58 | 1010.9 |
| 20260503001903 | 23 | 249 | 0.0 | 3.2 | 0.00 | 0.08 | 0.08 | 58 | 1010.9 |
| 20260503001403 | 23 | 335 | 0.0 | 3.2 | 0.00 | 0.08 | 0.08 | 58 | 1010.9 |
| 20260503000903 | 23 | 276 | 0.0 | 3.2 | 0.00 | 0.08 | 0.08 | 58 | 1010.9 |
| 20260503000403 | 23 | 235 | 0.0 | 3.2 | 0.00 | 0.08 | 0.08 | 58 | 1010.9 |
| 20260502235904 | 23 | 234 | 0.0 | 4.8 | 0.00 | 0.08 | 0.08 | 58 | 1011.0 |
| 20260502234904 | 23 | 201 | 0.0 | 4.8 | 0.00 | 0.08 | 0.08 | 58 | 1011.0 |
| 20260502233903 | 23 | 244 | 0.0 | 4.8 | 0.00 | 0.08 | 0.08 | 58 | 1011.2 |
| 20260502233404 | 23 | 232 | 0.0 | 4.8 | 0.00 | 0.08 | 0.08 | 58 | 1011.2 |
| 20260502232903 | 23 | 283 | 0.0 | 3.2 | 0.00 | 0.08 | 0.08 | 59 | 1011.3 |
| 20260502232404 | 23 | 288 | 0.0 | 3.2 | 0.00 | 0.08 | 0.08 | 60 | 1011.4 |
| 20260502231904 | 22 | 33 | 0.0 | 3.2 | 0.00 | 0.08 | 0.08 | 60 | 1011.4 |
| 20260502231404 | 22 | 265 | 0.0 | 3.2 | 0.00 | 0.08 | 0.08 | 61 | 1011.4 |
| 20260502230903 | 22 | 53 | 0.0 | 3.2 | 0.00 | 0.08 | 0.08 | 61 | 1011.5 |
| 20260502230404 | 22 | 229 | 0.0 | 3.2 | 0.00 | 0.08 | 0.08 | 60 | 1011.7 |
| 20260502225903 | 22 | 281 | 0.0 | 4.8 | 0.00 | 0.08 | 0.08 | 60 | 1011.8 |
| 20260502225403 | 22 | 321 | 1.6 | 4.8 | 0.00 | 0.08 | 0.08 | 60 | 1011.8 |
| 20260502224904 | 22 | 25 | 0.0 | 3.2 | 0.00 | 0.08 | 0.08 | 60 | 1012.0 |
| 20260502224404 | 22 | 307 | 0.0 | 3.2 | 0.00 | 0.08 | 0.08 | 60 | 1012.0 |
| 20260502223403 | 21 | 31 | 0.0 | 3.2 | 0.00 | 0.08 | 0.08 | 62 | 1012.2 |
| 20260502222903 | 21 | 230 | 0.0 | 4.8 | 0.00 | 0.08 | 0.08 | 67 | 1012.3 |
| 20260502222403 | 21 | 21 | 0.0 | 4.8 | 0.00 | 0.08 | 0.08 | 64 | 1012.4 |
| 20260502221403 | 21 | 240 | 0.0 | 3.2 | 0.00 | 0.08 | 0.08 | 62 | 1012.5 |
| 20260502220903 | 21 | 340 | 0.0 | 4.8 | 0.00 | 0.08 | 0.08 | 62 | 1012.7 |
| 20260502220403 | 21 | 257 | 0.0 | 8.0 | 0.00 | 0.08 | 0.08 | 63 | 1012.7 |
| 20260502215905 | 21 | 260 | 0.0 | 8.0 | 0.00 | 0.08 | 0.08 | 63 | 1012.7 |
| 20260502215404 | 21 | 274 | 0.0 | 4.8 | 0.00 | 0.08 | 0.08 | 65 | 1012.8 |
| 20260502214903 | 20 | 36 | 0.0 | 4.8 | 0.00 | 0.08 | 0.08 | 63 | 1012.8 |
| 20260502213903 | 20 | 175 | 0.0 | 8.0 | 0.00 | 0.08 | 0.08 | 70 | 1012.9 |
| 20260502213404 | 20 | 27 | 1.6 | 8.0 | 0.00 | 0.08 | 0.08 | 66 | 1013.0 |